Regional Weather Roundup
Issued by NWS

Home | Current Version | Previous Version | Graphics & Text | Print | Product List | Glossary On
Versions: 1 2 3 4 5 6 7 8 9 10 11 12 13 14 15 16 17 18 19 20 21 22 23 24 25 26 27 28 29 30 31 32 33 34 35 36 37 38 39 40 41 42 43 44 45 46 47 48 49 50
000
ASUS43 KFSD 180810
RWRSD

WEATHER ROUNDUP FOR SOUTH DAKOTA
NATIONAL WEATHER SERVICE SIOUX FALLS SD
300 AM CDT FRI AUG 18 2017

NOTE: "FAIR" INDICATES FEW OR NO CLOUDS BELOW 12,000 FEET WITH NO
SIGNIFICANT WEATHER AND/OR OBSTRUCTIONS TO VISIBILITY.


SDZ001>005-009-010-012>017-180900-
NORTHWEST AND NORTH CENTRAL SOUTH DAKOTA

CITY           SKY/WX    TMP DP  RH WIND       PRES   REMARKS
BUFFALO          N/A     60  45  57 NW8       29.93R
FAITH            N/A     59  49  69 NW10      29.93R
MOBRIDGE       PTCLDY    66  59  78 S8        29.86S
$$

SDZ012>016-024>037-041>051-057-063-072>074-180900-
SOUTHWEST AND SOUTH CENTRAL SOUTH DAKOTA

CITY           SKY/WX    TMP DP  RH WIND       PRES   REMARKS
RAPID CTY ARPT CLEAR     61  47  59 W9        30.00S
PIERRE         CLEAR     63  58  83 S8        29.88F
CUSTER         CLOUDY    54  37  52 NW5       30.15S
ELLSWORTH AFB  CLEAR     57  48  70 W6        29.99S
PHILIP         CLEAR     57  49  74 W10       29.93S
PINE RIDGE     CLEAR     52  51  97 CALM      30.04R
SPEARFISH      FAIR      61  43  51 CALM      30.04F
WINNER         FAIR      62  59  90 S8        29.92F
$$

SDZ004>011-016>023-039-040-180900-
NORTHEAST SOUTH DAKOTA

CITY           SKY/WX    TMP DP  RH WIND       PRES   REMARKS
ABERDEEN       LGT RAIN  65  57  75 S17       29.82F
WATERTOWN      CLOUDY    62  57  83 CALM      29.87F
BROOKINGS      CLOUDY    63  55  75 S14       29.87F
SISSETON         N/A     62  60  93 CALM      29.86F
$$

SDZ017-020-022-023-036>040-048>070-180900-
SOUTHEAST SOUTH DAKOTA

CITY           SKY/WX    TMP DP  RH WIND       PRES   REMARKS
SIOUX FALLS    LGT RAIN  64  63  96 E8        29.88F
HURON          CLOUDY    62  58  86 SW3       29.91R
CHAMBERLAIN    PTCLDY    62  61  98 CALM      29.92R
MITCHELL       CLOUDY    64  60  87 S6        29.88R
YANKTON        LGT RAIN  62  58  86 E18       29.82F
$$

ABBREVIATIONS USED IN REMARKS
   TC - TEMPERATURE IN CELSIUS
  WCI - WIND CHILL INDEX
   HX - HEAT INDEX
  VSB - VISIBILITY





USA.gov is the U.S. government's official web portal to all federal, state and local government web resources and services.